RYR653Z EPWR-LDZD

Flight info

Callsign RYR653Z
Flight time 1h 21m
Altitude 36000
Route ULGIL T707 TOMTI DCT ODLIV DCT BEKVI DCT BUDEX DCT LIMRA DCT KFT DCT BERTA DCT KUDUL
Aircraft B738/M-SDGIJ1LRWY/SB1

Departure

Time 2026-05-06 19:23
Airport Copernicus Wrocław Airport (EPWR)

Arrival

Time 2026-05-06 20:44
Airport Zadar Airport (LDZD)
Time Latitude Longitude Altitude Speed Heading
2026-05-06 18:55 51.10994 16.87563 408 ft 0 kts 26°
2026-05-06 19:12 51.10987 16.87558 408 ft 2 kts 26°
2026-05-06 19:12 51.10973 16.87548 409 ft 2 kts 26°
2026-05-06 19:13 51.10959 16.87537 409 ft 2 kts
2026-05-06 19:13 51.10945 16.87540 410 ft 2 kts 332°
2026-05-06 19:13 51.10934 16.87557 410 ft 2 kts 297°
2026-05-06 19:13 51.10928 16.87579 409 ft 1 kts 295°
2026-05-06 19:14 51.10926 16.87584 409 ft 0 kts 297°
2026-05-06 19:17 51.10927 16.87583 409 ft 0 kts 298°
2026-05-06 19:17 51.10934 16.87560 410 ft 5 kts 298°
2026-05-06 19:17 51.10954 16.87478 410 ft 9 kts 272°
2026-05-06 19:18 51.10910 16.87397 411 ft 11 kts 207°
2026-05-06 19:18 51.10831 16.87336 411 ft 14 kts 206°
2026-05-06 19:18 51.10743 16.87268 411 ft 13 kts 205°
2026-05-06 19:18 51.10664 16.87276 411 ft 13 kts 123°
2026-05-06 19:19 51.10616 16.87441 411 ft 19 kts 116°
2026-05-06 19:19 51.10549 16.87659 410 ft 25 kts 115°
2026-05-06 19:19 51.10471 16.87917 409 ft 25 kts 116°
2026-05-06 19:19 51.10395 16.88166 408 ft 24 kts 115°
2026-05-06 19:20 51.10321 16.88408 407 ft 23 kts 115°
2026-05-06 19:20 51.10245 16.88660 406 ft 28 kts 116°
2026-05-06 19:20 51.10154 16.88956 405 ft 29 kts 116°
2026-05-06 19:20 51.10066 16.89242 406 ft 30 kts 116°
2026-05-06 19:21 51.09974 16.89540 407 ft 28 kts 116°
2026-05-06 19:21 51.09934 16.89714 407 ft 12 kts 91°
2026-05-06 19:21 51.09907 16.89780 406 ft 6 kts 215°
2026-05-06 19:21 51.09915 16.89730 406 ft 0 kts 295°
2026-05-06 19:22 51.09932 16.89673 407 ft 26 kts 296°
2026-05-06 19:22 51.10119 16.89065 406 ft 93 kts 296°
2026-05-06 19:22 51.10487 16.87863 410 ft 147 kts 295°
2026-05-06 19:23 51.10997 16.86235 658 ft 169 kts 295°
2026-05-06 19:23 51.11531 16.84594 1287 ft 170 kts 297°
2026-05-06 19:23 51.12075 16.82974 1810 ft 170 kts 297°
2026-05-06 19:23 51.12616 16.81214 2154 ft 181 kts 294°
2026-05-06 19:24 51.12792 16.79204 2434 ft 195 kts 257°
2026-05-06 19:24 51.12056 16.77350 2706 ft 211 kts 219°
2026-05-06 19:24 51.10704 16.76141 2978 ft 229 kts 207°
2026-05-06 19:24 51.09408 16.74599 3370 ft 239 kts 233°
2026-05-06 19:25 51.08660 16.72234 3908 ft 245 kts 256°
2026-05-06 19:25 51.08371 16.69483 4325 ft 257 kts 263°
2026-05-06 19:25 51.08189 16.66663 4883 ft 263 kts 264°
2026-05-06 19:25 51.07983 16.63751 5535 ft 265 kts 262°
2026-05-06 19:26 51.07747 16.60860 6194 ft 267 kts 261°
2026-05-06 19:26 51.07491 16.57948 6878 ft 268 kts 261°
2026-05-06 19:26 51.07229 16.55028 7562 ft 269 kts 261°
2026-05-06 19:26 51.06959 16.52034 8184 ft 274 kts 261°
2026-05-06 19:27 51.06690 16.49063 8841 ft 277 kts 261°
2026-05-06 19:27 51.06409 16.46030 9511 ft 279 kts 260°
2026-05-06 19:27 51.06126 16.42954 10132 ft 285 kts 261°
2026-05-06 19:27 51.05838 16.39789 10535 ft 298 kts 260°
2026-05-06 19:28 51.05532 16.36426 10914 ft 313 kts 261°
2026-05-06 19:28 51.05215 16.32946 11494 ft 320 kts 260°
2026-05-06 19:28 51.04895 16.29427 12144 ft 326 kts 260°
2026-05-06 19:28 51.04570 16.25850 12852 ft 329 kts 259°
2026-05-06 19:29 51.04245 16.22296 13553 ft 332 kts 259°
2026-05-06 19:29 51.03907 16.18630 14243 ft 337 kts 259°
2026-05-06 19:29 51.03567 16.14947 14957 ft 340 kts 259°
2026-05-06 19:29 51.03220 16.11205 15575 ft 345 kts 259°
2026-05-06 19:30 51.02866 16.07398 16286 ft 348 kts 260°
2026-05-06 19:30 51.02512 16.03582 16968 ft 351 kts 260°
2026-05-06 19:30 51.02154 15.99731 17666 ft 353 kts 260°
2026-05-06 19:30 51.01788 15.95829 18236 ft 359 kts 260°
2026-05-06 19:31 51.01423 15.91920 18928 ft 360 kts 259°
2026-05-06 19:31 51.01051 15.87973 19539 ft 363 kts 259°
2026-05-06 19:31 51.00292 15.79980 20763 ft 368 kts 259°
2026-05-06 19:32 50.99913 15.76005 21359 ft 370 kts 258°
2026-05-06 19:32 50.99520 15.71923 21927 ft 373 kts 258°
2026-05-06 19:32 50.98954 15.67929 22445 ft 373 kts 249°
2026-05-06 19:32 50.97927 15.64156 22964 ft 372 kts 239°
2026-05-06 19:33 50.96429 15.60735 23472 ft 372 kts 227°
2026-05-06 19:33 50.94570 15.57912 24041 ft 371 kts 217°
2026-05-06 19:33 50.92406 15.55729 24591 ft 372 kts 206°
2026-05-06 19:33 50.89986 15.54242 25104 ft 374 kts 197°
2026-05-06 19:34 50.87484 15.53070 25628 ft 375 kts 200°
2026-05-06 19:34 50.85046 15.51584 26087 ft 377 kts 204°
2026-05-06 19:34 50.82630 15.49921 26524 ft 380 kts 205°
2026-05-06 19:34 50.80179 15.48196 26916 ft 384 kts 205°
2026-05-06 19:35 50.77727 15.46498 27374 ft 386 kts 204°
2026-05-06 19:35 50.75229 15.44806 27820 ft 389 kts 204°
2026-05-06 19:35 50.72747 15.43157 28321 ft 389 kts 204°
2026-05-06 19:35 50.70238 15.41513 28748 ft 391 kts 204°
2026-05-06 19:36 50.67690 15.39861 29156 ft 393 kts 204°
2026-05-06 19:36 50.65149 15.38227 29547 ft 396 kts 203°
2026-05-06 19:36 50.62579 15.36583 29936 ft 398 kts 203°
2026-05-06 19:36 50.60044 15.34965 30343 ft 399 kts 202°
2026-05-06 19:37 50.57406 15.33286 30705 ft 402 kts 203°
2026-05-06 19:37 50.54831 15.31650 31079 ft 403 kts 203°
2026-05-06 19:37 50.52238 15.30006 31636 ft 400 kts 203°
2026-05-06 19:37 50.50533 15.28928 32024 ft 397 kts 203°
2026-05-06 19:38 50.47121 15.26772 32719 ft 393 kts 203°
2026-05-06 19:38 50.44591 15.25176 33163 ft 391 kts 204°
2026-05-06 19:38 50.42068 15.23583 33561 ft 390 kts 204°
2026-05-06 19:38 50.39547 15.21994 33954 ft 390 kts 204°
2026-05-06 19:39 50.37022 15.20403 34319 ft 389 kts 204°
2026-05-06 19:39 50.34488 15.18809 34730 ft 387 kts 204°
2026-05-06 19:39 50.32021 15.17258 34993 ft 387 kts 204°
2026-05-06 19:39 50.29522 15.15690 35253 ft 386 kts 204°
2026-05-06 19:40 50.27020 15.14119 35484 ft 386 kts 204°
2026-05-06 19:40 50.24543 15.12565 35656 ft 388 kts 204°
2026-05-06 19:40 50.19528 15.09424 35752 ft 388 kts 204°
2026-05-06 19:41 50.14528 15.06306 35751 ft 384 kts 204°
2026-05-06 19:41 50.09547 15.03204 35753 ft 386 kts 204°
2026-05-06 19:42 50.04538 15.00091 35739 ft 386 kts 204°
2026-05-06 19:42 49.99551 14.96998 35740 ft 385 kts 204°
2026-05-06 19:43 49.94590 14.93929 35737 ft 386 kts 204°
2026-05-06 19:43 49.89587 14.90841 35737 ft 387 kts 204°
2026-05-06 19:44 49.84614 14.87776 35742 ft 386 kts 204°
2026-05-06 19:44 49.79622 14.84707 35733 ft 384 kts 204°
2026-05-06 19:45 49.74645 14.81657 35741 ft 385 kts 204°
2026-05-06 19:45 49.69728 14.78650 35733 ft 383 kts 204°
2026-05-06 19:46 49.64756 14.75613 35740 ft 384 kts 204°
2026-05-06 19:46 49.59774 14.72575 35729 ft 383 kts 204°
2026-05-06 19:47 49.54827 14.69567 35731 ft 383 kts 204°
2026-05-06 19:47 49.49896 14.66577 35733 ft 381 kts 204°
2026-05-06 19:48 49.44939 14.63577 35733 ft 382 kts 204°
2026-05-06 19:48 49.39995 14.60590 35738 ft 382 kts 204°
2026-05-06 19:49 49.35017 14.57591 35735 ft 382 kts 204°
2026-05-06 19:49 49.30090 14.54629 35733 ft 384 kts 204°
2026-05-06 19:50 49.25095 14.51633 35735 ft 383 kts 204°
2026-05-06 19:50 49.20189 14.48696 35735 ft 382 kts 204°
2026-05-06 19:51 49.15220 14.45725 35737 ft 383 kts 204°
2026-05-06 19:51 49.10260 14.42769 35747 ft 381 kts 204°
2026-05-06 19:52 49.05297 14.39819 35751 ft 384 kts 205°
2026-05-06 19:52 49.00327 14.36868 35752 ft 383 kts 204°
2026-05-06 19:53 48.95270 14.34440 35764 ft 387 kts 193°
2026-05-06 19:53 48.89884 14.33988 35758 ft 394 kts 182°
2026-05-06 19:54 48.84384 14.34546 35760 ft 395 kts 180°
2026-05-06 19:54 48.78907 14.35246 35773 ft 397 kts 180°
2026-05-06 19:55 48.73397 14.35911 35773 ft 396 kts 180°
2026-05-06 19:55 48.67893 14.36538 35773 ft 394 kts 180°
2026-05-06 19:56 48.62447 14.37137 35776 ft 396 kts 181°
2026-05-06 19:56 48.56955 14.37736 35782 ft 395 kts 181°
2026-05-06 19:57 48.51442 14.38332 35784 ft 396 kts 180°
2026-05-06 19:57 48.45972 14.38920 35790 ft 396 kts 181°
2026-05-06 19:58 48.40482 14.39509 35796 ft 395 kts 180°
2026-05-06 19:58 48.35075 14.40091 35798 ft 395 kts 180°
2026-05-06 19:59 48.29581 14.40682 35801 ft 396 kts 181°
2026-05-06 19:59 48.24074 14.41270 35801 ft 396 kts 180°
2026-05-06 20:00 48.18600 14.41854 35808 ft 394 kts 180°
2026-05-06 20:00 48.13127 14.42440 35821 ft 394 kts 181°
2026-05-06 20:01 48.07624 14.43022 35824 ft 394 kts 181°
2026-05-06 20:01 48.02137 14.43605 35823 ft 396 kts 181°
2026-05-06 20:02 47.96624 14.44191 35823 ft 397 kts 180°
2026-05-06 20:02 47.91123 14.44771 35827 ft 395 kts 181°
2026-05-06 20:03 47.85677 14.45225 35825 ft 396 kts 182°
2026-05-06 20:03 47.80161 14.45578 35831 ft 396 kts 182°
2026-05-06 20:04 47.74631 14.45928 35836 ft 397 kts 182°
2026-05-06 20:04 47.69092 14.46293 35830 ft 396 kts 182°
2026-05-06 20:05 47.63619 14.46661 35855 ft 397 kts 182°
2026-05-06 20:05 47.58058 14.47033 35848 ft 397 kts 182°
2026-05-06 20:06 47.52574 14.47407 35847 ft 396 kts 182°
2026-05-06 20:06 47.47026 14.47782 35853 ft 397 kts 182°
2026-05-06 20:07 47.41511 14.48155 35864 ft 396 kts 182°
2026-05-06 20:07 47.36006 14.48527 35869 ft 397 kts 182°
2026-05-06 20:08 47.30457 14.48899 35867 ft 399 kts 182°
2026-05-06 20:08 47.24938 14.49270 35887 ft 399 kts 182°
2026-05-06 20:09 47.19390 14.49641 35895 ft 398 kts 182°
2026-05-06 20:09 47.13830 14.50013 35896 ft 399 kts 182°
2026-05-06 20:10 47.08293 14.50384 35893 ft 397 kts 182°
2026-05-06 20:10 47.02788 14.50750 35890 ft 398 kts 182°
2026-05-06 20:11 46.97243 14.51118 35887 ft 398 kts 182°
2026-05-06 20:11 46.91718 14.51486 35889 ft 397 kts 182°
2026-05-06 20:12 46.86185 14.51852 35896 ft 400 kts 182°
2026-05-06 20:12 46.80670 14.52216 35889 ft 400 kts 182°
2026-05-06 20:13 46.75252 14.52573 35898 ft 401 kts 182°
2026-05-06 20:13 46.69662 14.52942 35888 ft 401 kts 182°
2026-05-06 20:14 46.64100 14.53496 35903 ft 403 kts 177°
2026-05-06 20:14 46.58575 14.55354 35904 ft 410 kts 167°
2026-05-06 20:15 46.53153 14.58077 35915 ft 414 kts 165°
2026-05-06 20:15 46.47775 14.60964 35910 ft 413 kts 165°
2026-05-06 20:16 46.42295 14.63361 35921 ft 408 kts 173°
2026-05-06 20:16 46.36726 14.64845 35920 ft 406 kts 175°
2026-05-06 20:17 46.31185 14.66152 35915 ft 405 kts 176°
2026-05-06 20:17 46.25617 14.67491 35915 ft 407 kts 175°
2026-05-06 20:18 46.20023 14.68872 35919 ft 408 kts 175°
2026-05-06 20:18 46.14458 14.70266 35923 ft 408 kts 175°
2026-05-06 20:19 46.08863 14.71675 35914 ft 407 kts 175°
2026-05-06 20:19 46.03252 14.73051 35768 ft 407 kts 176°
2026-05-06 20:20 46.00480 14.73583 35532 ft 396 kts 178°
2026-05-06 20:20 45.97779 14.74027 34966 ft 392 kts 179°
2026-05-06 20:20 45.95052 14.74445 34800 ft 391 kts 179°
2026-05-06 20:20 45.92361 14.74852 34799 ft 396 kts 179°
2026-05-06 20:21 45.89632 14.75271 34633 ft 406 kts 179°
2026-05-06 20:21 45.86778 14.75722 34338 ft 408 kts 179°
2026-05-06 20:21 45.83954 14.76185 33784 ft 406 kts 179°
2026-05-06 20:21 45.81162 14.76652 33148 ft 406 kts 179°
2026-05-06 20:22 45.78361 14.77123 32473 ft 406 kts 178°
2026-05-06 20:22 45.75568 14.77596 31770 ft 406 kts 179°
2026-05-06 20:22 45.72733 14.78075 31036 ft 407 kts 178°
2026-05-06 20:22 45.69929 14.78547 30300 ft 408 kts 178°
2026-05-06 20:23 45.67112 14.79022 29651 ft 406 kts 178°
2026-05-06 20:23 45.64331 14.79497 29233 ft 401 kts 178°
2026-05-06 20:23 45.61557 14.79965 28753 ft 406 kts 178°
2026-05-06 20:23 45.58744 14.80437 28242 ft 406 kts 178°
2026-05-06 20:24 45.55954 14.80909 27742 ft 401 kts 178°
2026-05-06 20:24 45.53189 14.81377 27242 ft 397 kts 178°
2026-05-06 20:24 45.50460 14.81839 26744 ft 392 kts 178°
2026-05-06 20:24 45.47758 14.82297 26242 ft 388 kts 178°
2026-05-06 20:25 45.45078 14.82750 25746 ft 383 kts 178°
2026-05-06 20:25 45.42430 14.83197 25252 ft 379 kts 178°
2026-05-06 20:25 45.39816 14.83636 24766 ft 376 kts 178°
2026-05-06 20:25 45.37236 14.84065 24286 ft 381 kts 178°
2026-05-06 20:26 45.34576 14.84506 23779 ft 378 kts 178°
2026-05-06 20:26 45.31981 14.84939 23287 ft 374 kts 178°
2026-05-06 20:26 45.29412 14.85368 22801 ft 370 kts 177°
2026-05-06 20:26 45.26893 14.85790 22323 ft 366 kts 177°
2026-05-06 20:27 45.24372 14.86211 21846 ft 362 kts 177°
2026-05-06 20:27 45.21892 14.86624 21368 ft 358 kts 178°
2026-05-06 20:27 45.19423 14.87034 20883 ft 355 kts 178°
2026-05-06 20:27 45.16969 14.87442 20393 ft 352 kts 177°
2026-05-06 20:28 45.14531 14.87848 19923 ft 349 kts 177°
2026-05-06 20:28 45.12107 14.88247 19448 ft 353 kts 177°
2026-05-06 20:28 45.09679 14.88644 18961 ft 354 kts 177°
2026-05-06 20:28 45.07252 14.89044 18473 ft 350 kts 176°
2026-05-06 20:29 45.04835 14.89443 17989 ft 347 kts 176°
2026-05-06 20:29 45.02438 14.89842 17503 ft 343 kts 176°
2026-05-06 20:29 45.00080 14.90233 17024 ft 340 kts 176°
2026-05-06 20:29 44.97734 14.90622 16537 ft 337 kts 176°
2026-05-06 20:30 44.95424 14.91005 16066 ft 334 kts 177°
2026-05-06 20:30 44.90822 14.91763 15126 ft 328 kts 177°
2026-05-06 20:30 44.88549 14.92137 14660 ft 325 kts 177°
2026-05-06 20:31 44.86323 14.92501 14209 ft 325 kts 177°
2026-05-06 20:31 44.84030 14.92874 13738 ft 330 kts 177°
2026-05-06 20:31 44.81786 14.93240 13276 ft 327 kts 177°
2026-05-06 20:31 44.79514 14.93613 12815 ft 324 kts 177°
2026-05-06 20:32 44.77251 14.93985 12355 ft 321 kts 176°
2026-05-06 20:32 44.75060 14.94345 11897 ft 319 kts 177°
2026-05-06 20:32 44.72856 14.94707 11441 ft 316 kts 177°
2026-05-06 20:32 44.70670 14.95064 10988 ft 313 kts 177°
2026-05-06 20:33 44.68518 14.95415 10537 ft 310 kts 177°
2026-05-06 20:33 44.66381 14.95766 10273 ft 302 kts 177°
2026-05-06 20:33 44.64362 14.96099 10149 ft 290 kts 177°
2026-05-06 20:33 44.62381 14.96425 9977 ft 280 kts 177°
2026-05-06 20:34 44.60437 14.96739 9594 ft 279 kts 177°
2026-05-06 20:34 44.58505 14.97049 9195 ft 278 kts 177°
2026-05-06 20:34 44.56597 14.97355 8827 ft 276 kts 177°
2026-05-06 20:34 44.54678 14.97667 8464 ft 274 kts 176°
2026-05-06 20:35 44.52800 14.97973 8111 ft 272 kts 176°
2026-05-06 20:35 44.50930 14.98277 7752 ft 270 kts 176°
2026-05-06 20:35 44.49056 14.98582 7401 ft 268 kts 176°
2026-05-06 20:35 44.47195 14.98883 7050 ft 265 kts 176°
2026-05-06 20:36 44.45330 14.99185 6701 ft 263 kts 176°
2026-05-06 20:36 44.43522 14.99477 6401 ft 260 kts 176°
2026-05-06 20:36 44.41763 14.99765 6277 ft 249 kts 176°
2026-05-06 20:36 44.40074 15.00042 6198 ft 237 kts 176°
2026-05-06 20:37 44.38461 15.00304 6127 ft 227 kts 176°
2026-05-06 20:37 44.36895 15.00564 6063 ft 230 kts 174°
2026-05-06 20:37 44.35351 15.01177 5935 ft 229 kts 153°
2026-05-06 20:37 44.34182 15.02687 5657 ft 233 kts 127°
2026-05-06 20:38 44.33295 15.04590 5374 ft 231 kts 131°
2026-05-06 20:38 44.32243 15.06210 5126 ft 226 kts 140°
2026-05-06 20:38 44.31084 15.07676 4874 ft 223 kts 141°
2026-05-06 20:38 44.29941 15.09104 4633 ft 220 kts 141°
2026-05-06 20:39 44.28821 15.10547 4391 ft 218 kts 140°
2026-05-06 20:39 44.27714 15.12000 4152 ft 218 kts 140°
2026-05-06 20:39 44.26611 15.13453 3910 ft 217 kts 140°
2026-05-06 20:39 44.25511 15.14901 3679 ft 214 kts 139°
2026-05-06 20:40 44.24428 15.16325 3434 ft 210 kts 139°
2026-05-06 20:40 44.23384 15.17689 3223 ft 204 kts 140°
2026-05-06 20:40 44.22379 15.19024 2994 ft 197 kts 138°
2026-05-06 20:40 44.21434 15.20316 2909 ft 184 kts 138°
2026-05-06 20:41 44.20523 15.21558 2689 ft 179 kts 138°
2026-05-06 20:41 44.19636 15.22752 2448 ft 176 kts 137°
2026-05-06 20:41 44.18798 15.23892 2226 ft 162 kts 137°
2026-05-06 20:41 44.18018 15.24950 1988 ft 147 kts 136°
2026-05-06 20:42 44.17314 15.25898 1824 ft 139 kts 136°
2026-05-06 20:42 44.16640 15.26812 1614 ft 133 kts 135°
2026-05-06 20:42 44.15947 15.27713 1489 ft 138 kts 136°
2026-05-06 20:42 44.15246 15.28635 1359 ft 139 kts 135°
2026-05-06 20:43 44.14547 15.29602 1187 ft 142 kts 134°
2026-05-06 20:43 44.13836 15.30614 1000 ft 145 kts 134°
2026-05-06 20:43 44.13123 15.31558 706 ft 143 kts 135°
2026-05-06 20:43 44.12400 15.32534 493 ft 146 kts 134°
2026-05-06 20:44 44.11657 15.33546 272 ft 147 kts 133°
2026-05-06 20:44 44.10975 15.34471 248 ft 112 kts 136°
2026-05-06 20:44 44.10572 15.35015 253 ft 59 kts 135°
2026-05-06 20:44 44.10327 15.35345 256 ft 45 kts 135°
2026-05-06 20:45 44.10142 15.35598 257 ft 29 kts 135°
2026-05-06 20:45 44.10060 15.35705 257 ft 10 kts 148°
2026-05-06 20:45 44.10003 15.35682 257 ft 8 kts 226°
2026-05-06 20:45 44.09960 15.35620 258 ft 9 kts 226°
2026-05-06 20:46 44.09901 15.35538 258 ft 12 kts 218°
2026-05-06 20:46 44.09824 15.35522 259 ft 10 kts 170°
2026-05-06 20:46 44.09763 15.35529 260 ft 7 kts 179°
2026-05-06 20:46 44.09715 15.35526 260 ft 5 kts 191°
2026-05-06 20:47 44.09699 15.35493 261 ft 3 kts 257°
2026-05-06 20:47 44.09702 15.35446 261 ft 5 kts 297°
2026-05-06 20:47 44.09720 15.35422 261 ft 1 kts 324°
2026-05-06 20:47 44.09728 15.35416 261 ft 0 kts 324°
2026-05-06 20:48 44.09732 15.35411 261 ft 0 kts 325°
2026-05-06 20:48 44.09733 15.35410 260 ft 0 kts 325°